Location: Wien
(48.2082°N, 16.3738°E)
Time: 23:31:31
(UTC+02:00)

Max Valier Satellite - Visible Passes

Search period start: 24 April 2024 00:00
Search period end: 04 May 2024 00:00
Orbit: 357 x 363 km, 97.1° (Epoch: 24 April)

Date Brightness Start Highest point End Pass type
(mag) Time Alt. Az. Time Alt. Az. Time Alt. Az.
24 Apr ? 21:01:03 10° SW 21:03:16 20° W 21:05:30 10° NW visible
27 Apr ? 20:53:51 10° SSW 20:56:17 25° W 20:58:44 10° NW visible
28 Apr ? 21:22:49 10° WSW 21:23:51 11° W 21:24:53 10° WNW visible
30 Apr ? 20:43:59 10° SSW 20:46:38 34° W 20:49:18 10° NNW visible
01 May ? 21:11:25 10° SW 21:13:15 16° W 21:15:05 10° NW visible
